Regional Weather Roundup
Issued by NWS

Home | Current Version | Previous Version | Text Only | Print | Product List | Glossary Off
Versions: 1 2 3 4 5 6 7 8 9 10 11 12 13 14 15 16 17 18 19 20 21 22 23 24 25 26 27 28 29 30 31 32 33 34 35 36 37 38 39 40 41 42 43 44 45 46 47 48 49 50

603
ASUS43 KBIS 140002
RWRND

NORTH DAKOTA REGIONAL WEATHER ROUNDUP
NATIONAL WEATHER SERVICE BISMARCK ND
600 PM CST WED DEC 13 2017

NOTE: "FAIR" INDICATES FEW OR NO CLOUDS BELOW 12,000 FEET WITH NO
SIGNIFICANT WEATHER AND/OR OBSTRUCTIONS TO VISIBILITY.


NDZ001>003-009>011-017-140100-
NORTHWEST NORTH DAKOTA

CITY           SKY/WX    TMP DP  RH WIND       PRES   REMARKS
WILLISTON      PTCLDY    35  25  66 W9        30.02S
6HR MIN TEMP:  35; 6HR MAX TEMP:  43;

MINOT          MOCLDY    33  25  72 NW16      29.96R
MINOT AFB      CLOUDY    32  24  74 NW14      29.95R
$$

NDZ018>021-031>035-040>046-140100-
SOUTHWEST NORTH DAKOTA

CITY           SKY/WX    TMP DP  RH WIND       PRES   REMARKS
BISMARCK       CLOUDY    35  26  69 NW8       29.99R
6HR MIN TEMP:  35; 6HR MAX TEMP:  37;

DICKINSON      CLOUDY    34  23  64 NW16      29.99R
GARRISON         N/A     30  24  78 NW14      29.97R WCI  19
6HR MIN TEMP:  30; 6HR MAX TEMP:  35;

HETTINGER ARPT CLOUDY    34  21  59 NW17      30.02R
$$

NDZ004>008-012>016-024-026-027-054-140100-
NORTHEAST NORTH DAKOTA

CITY           SKY/WX    TMP DP  RH WIND       PRES   REMARKS
GRAND FORKS    LGT SNOW  20  15  81 N15       29.96R WCI   6
GRND FRKS AFB  MIX PCPN  21  16  79 N16       29.96R WCI   7
DEVILS LAKE    CLOUDY    24  21  88 N12       29.95R WCI  13
$$

NDZ022-023-025-028>030-036>039-047>053-140100-
SOUTHEAST NORTH DAKOTA

CITY           SKY/WX    TMP DP  RH WIND       PRES   REMARKS
FARGO          CLOUDY    23  18  81 N14       29.94R WCI  11
6HR MIN TEMP:  23; 6HR MAX TEMP:  28; 6HR PCP: TRACE;

JAMESTOWN      CLOUDY    31  27  85 N14       29.91R
$$





USA.gov is the U.S. government's official web portal to all federal, state and local government web resources and services.